[[{"header":{"parameterUnit":"m.s-1","parameterCategory":1,"la1":30.2991,"la2":30.254,"lo1":-89.0895,"lo2":-89.0444,"dy":0.0017,"dx":0.0017,"nx":28,"ny":28,"refTime":"2026-01-03T09:00:00:Z","depth":0,"parameterNumber":2,"parameterNumberName":"U-component_of_WINDS"},"data":[0,0,0,0,0,0,0,0,0,0,0,0,0,0,0,0,0,0,0,0,0,0,0,0,0,0,0,0,0,0,0,0,0,0,0,0,0,0,0,0,0,0,0,0,0,0,0,0,0,0,0,0,0,0,0,0,0,0,3.1755,3.1755,0,3.1778,3.1778,3.1779,3.1801,3.1802,3.1802,3.1802,3.1827,3.1827,3.1828,0,0,0,0,0,0,0,0,0,0,0,0,0,3.1731,3.1732,3.1755,3.1755,3.1755,3.1778,3.1778,3.1779,3.1801,3.1802,3.1802,3.1802,3.1827,3.1827,3.1828,0,0,0,0,0,0,0,0,0,0,0,0,0,3.1747,3.1732,3.1755,3.1769,3.1771,3.1778,3.1778,3.1779,3.1801,3.1802,3.1802,3.1803,3.1827,3.1827,3.1828,3.1823,0,0,3.183,3.183,0,0,0,0,0,0,0,0,3.1746,3.1748,3.1767,3.1768,3.177,3.1787,3.1779,3.1793,3.1801,3.179,3.1802,3.1803,3.1814,3.1815,3.1819,3.1824,3.1825,3.183,3.183,3.183,3.183,0,0,0,0,0,0,0,3.1745,3.1747,3.1764,3.1767,3.1769,3.1775,3.1778,3.1782,3.1799,3.1791,3.1793,3.1795,3.1815,3.1818,3.1819,3.1825,3.183,3.183,3.1831,3.1831,3.1829,3.1828,0,0,0,0,0,0,3.1741,3.1746,3.1763,3.1765,3.1759,3.1775,3.1778,3.1781,3.1799,3.1802,3.1795,3.1796,3.1817,3.1819,3.182,3.1816,3.183,3.1831,3.1831,3.1829,3.1829,3.1828,0,0,0,0,0,0,3.1741,3.1743,3.1762,3.1756,3.1759,3.1775,3.1778,3.1782,3.1785,3.1802,3.1805,3.1795,3.1817,3.182,3.1822,3.1818,3.1831,3.1832,3.1829,3.1829,3.1828,3.1808,0,0,0,0,0,0,3.174,3.1742,3.174,3.1755,3.1759,3.1763,3.1778,3.1782,3.1786,3.1788,3.1803,3.1806,3.1818,3.1821,3.1823,3.1819,3.1832,3.183,3.1829,3.1828,3.1809,3.1806,3.1804,0,0,0,0,0,3.1739,3.1733,3.174,3.1742,3.1756,3.1763,3.1765,3.1778,3.1785,3.1784,3.1795,3.1805,3.1818,3.1821,3.1823,3.1819,3.183,3.1829,3.1829,3.181,3.1807,3.1804,0,0,0,0,0,0,3.1717,3.1735,3.1743,3.1742,3.1751,3.1767,3.1765,3.1775,3.1782,3.1783,3.18,3.1803,3.1804,3.1812,3.1816,3.1816,3.1826,3.1825,3.1811,3.1808,3.1806,3.1805,3.1833,0,0,0,0,0,3.1712,3.1715,3.1731,3.1729,3.1733,3.1748,3.1751,3.1761,3.1771,3.1775,3.1786,3.1795,3.1801,3.1805,3.1811,3.181,3.1814,3.1808,3.1806,3.1804,3.1804,3.1805,3.1803,3.1825,3.1825,3.1825,0,0,3.1702,3.1712,3.1713,3.1725,3.1733,3.1736,3.1751,3.1754,3.1757,3.1775,3.1779,3.1787,3.1799,3.18,3.1801,3.1806,3.1798,3.1803,3.1801,3.1802,3.1804,3.1802,3.18,3.1824,3.1825,3.1825,0,0,3.1685,3.1693,3.1692,3.17,3.1712,3.1722,3.1722,3.1736,3.1743,3.1746,3.176,3.1765,3.1774,3.1783,3.1788,3.1775,3.1786,3.1777,3.1766,3.1766,3.1765,3.1763,3.176,3.1758,3.1776,3.1776,3.1776,0,3.1671,3.1677,3.1691,3.1693,3.1698,3.1715,3.1715,3.1722,3.1735,3.1738,3.1744,3.1758,3.1767,3.177,3.1767,3.1771,3.1772,3.1776,3.1764,3.1762,3.1761,3.1758,3.1757,3.1775,3.1775,3.1775,3.1775,0,3.166,3.1663,3.1662,3.1674,3.1679,3.168,3.1695,3.1698,3.1707,3.1717,3.1721,3.1733,3.1742,3.1744,3.1753,3.1749,3.1752,3.176,3.1771,3.1758,3.1756,3.1754,3.1773,3.1774,3.1774,3.1774,0,0,3.1631,3.1651,3.165,3.1656,3.1671,3.1674,3.1676,3.1686,3.1689,3.1697,3.1701,3.1709,3.1717,3.1723,3.1733,3.1734,3.1725,3.1742,3.1743,3.174,3.1723,3.1717,3.1716,3.1732,3.1731,3.1731,3.1722,0,3.1618,3.1622,3.1635,3.1636,3.1641,3.1656,3.1658,3.1668,3.1677,3.1683,3.1693,3.1699,3.1709,3.1713,3.1714,3.1726,3.1722,3.1726,3.1736,3.1736,3.1733,3.1714,3.1708,3.1699,3.1721,3.1721,3.1721,0,3.1603,3.1611,3.1612,3.1627,3.1629,3.1631,3.1641,3.1646,3.1657,3.1664,3.1671,3.1682,3.1687,3.1696,3.1703,3.1705,3.171,3.1716,3.1716,3.1719,3.1728,3.1717,3.1696,3.1695,3.172,3.172,3.172,0,3.1583,3.1594,3.1597,3.1601,3.1618,3.1619,3.1627,3.1638,3.1643,3.1652,3.1656,3.1665,3.167,3.1678,3.1692,3.1697,3.1697,3.1707,3.1704,3.1704,3.1704,3.1704,3.1685,3.1705,3.1705,3.1705,3.1705,0,3.1568,3.1569,3.1588,3.159,3.1591,3.1606,3.1607,3.1616,3.1626,3.1631,3.1645,3.1649,3.1666,3.1672,3.1683,3.1688,3.169,3.1696,3.17,3.1696,3.1695,3.17,3.1701,3.1705,3.1705,3.1705,3.1705,0,3.1547,3.1559,3.1563,3.1579,3.1583,3.1584,3.1598,3.16,3.161,3.1616,3.1618,3.1634,3.1642,3.1656,3.1669,3.1676,3.1679,3.1684,3.1675,3.1677,3.1674,3.1674,3.1658,3.1657,3.1677,3.1676,3.1676,0,3.1537,3.1538,3.1553,3.1557,3.1564,3.1569,3.1575,3.1589,3.1594,3.1608,3.1609,3.1618,3.1626,3.1639,3.1652,3.1662,3.1667,3.1661,3.1669,3.1666,3.1669,3.1669,3.167,3.1659,3.1659,3.1659,3.1659,0,3.1518,3.1524,3.1531,3.154,3.1546,3.1554,3.1562,3.1565,3.1582,3.1587,3.1595,3.1601,3.1614,3.1623,3.1635,3.1643,3.1654,3.1656,3.1656,3.1653,3.1648,3.1652,3.1671,3.1656,3.1657,3.1657,3.1657,3.1657,3.1503,3.1505,3.1516,3.1524,3.1532,3.1539,3.1543,3.1553,3.156,3.1572,3.158,3.1588,3.16,3.1617,3.1625,3.1632,3.1637,3.1636,3.1637,3.1637,3.1636,3.1646,3.1634,3.1634,3.1634,3.1634,3.1634,0,3.1486,3.1494,3.1501,3.1512,3.1518,3.1527,3.1537,3.1542,3.1548,3.1559,3.1566,3.1576,3.1586,3.16,3.161,3.1613,3.1619,3.1616,3.1616,3.1618,3.163,3.1629,3.1611,3.1611,3.1611,3.1611,3.1611,3.1611,3.1478,3.1482,3.149,3.1498,3.1507,3.1514,3.1519,3.1527,3.1535,3.1546,3.1553,3.1562,3.1574,3.1586,3.1595,3.1599,3.1603,3.1599,3.1604,3.1615,3.1617,3.1619,3.1619,3.1599,3.1599,3.1592,3.1592,3.1592]},{"header":{"parameterUnit":"m.s-1","parameterCategory":1,"la1":30.2991,"la2":30.254,"lo1":-89.0895,"lo2":-89.0444,"dy":0.0017,"dx":0.0017,"nx":28,"ny":28,"refTime":"2026-01-03T09:00:00:Z","depth":0,"parameterNumber":3,"parameterNumberName":"V-component_of_WINDS"},"data":[0,0,0,0,0,0,0,0,0,0,0,0,0,0,0,0,0,0,0,0,0,0,0,0,0,0,0,0,0,0,0,0,0,0,0,0,0,0,0,0,0,0,0,0,0,0,0,0,0,0,0,0,0,0,0,0,0,0,1.5255,1.5255,0,1.527,1.527,1.527,1.5244,1.5243,1.5242,1.5241,1.5256,1.5257,1.5258,0,0,0,0,0,0,0,0,0,0,0,0,0,1.5206,1.5207,1.5255,1.5255,1.5255,1.527,1.527,1.527,1.5244,1.5243,1.5242,1.5241,1.5256,1.5257,1.5259,0,0,0,0,0,0,0,0,0,0,0,0,0,1.5224,1.5207,1.5255,1.5244,1.5243,1.5269,1.527,1.527,1.5244,1.5243,1.5241,1.524,1.5255,1.5257,1.5259,1.5297,0,0,1.5264,1.5265,0,0,0,0,0,0,0,0,1.5223,1.5226,1.5245,1.5245,1.5244,1.5253,1.5258,1.5279,1.5244,1.5244,1.5241,1.5239,1.5256,1.5258,1.5264,1.5297,1.5298,1.5265,1.5266,1.5266,1.5267,0,0,0,0,0,0,0,1.5222,1.5225,1.5261,1.5246,1.5245,1.5239,1.524,1.5262,1.5257,1.5244,1.5242,1.5244,1.5256,1.5262,1.5264,1.5298,1.5265,1.5266,1.5267,1.5268,1.5367,1.5368,0,0,0,0,0,0,1.5222,1.5225,1.526,1.5261,1.523,1.5241,1.5242,1.5252,1.5257,1.5256,1.5245,1.5242,1.5259,1.5262,1.5264,1.5311,1.5266,1.5268,1.5269,1.5365,1.5367,1.5369,0,0,0,0,0,0,1.5221,1.5225,1.526,1.5242,1.5246,1.5243,1.5254,1.5253,1.5259,1.5258,1.5257,1.5252,1.5258,1.5262,1.5289,1.5311,1.5269,1.5271,1.5364,1.5366,1.5368,1.5404,0,0,0,0,0,0,1.522,1.5225,1.5239,1.5243,1.5247,1.5284,1.5255,1.5254,1.5262,1.5259,1.5264,1.5264,1.5258,1.5287,1.5291,1.5313,1.5272,1.5362,1.5365,1.5367,1.5401,1.5407,1.5413,0,0,0,0,0,1.5218,1.5248,1.524,1.5244,1.5264,1.5285,1.5288,1.528,1.5264,1.5278,1.5278,1.5264,1.5308,1.529,1.5295,1.5317,1.536,1.5364,1.5367,1.5398,1.5406,1.5413,0,0,0,0,0,0,1.5246,1.5248,1.5239,1.5271,1.5279,1.5281,1.5299,1.5288,1.53,1.5297,1.5286,1.5288,1.5318,1.532,1.53,1.5356,1.5331,1.5336,1.5354,1.5361,1.5367,1.5366,1.5274,0,0,0,0,0,1.5256,1.5273,1.5274,1.5302,1.5306,1.5302,1.5311,1.5304,1.5311,1.5314,1.5316,1.5323,1.5339,1.535,1.5364,1.5401,1.5403,1.5419,1.5425,1.5429,1.5434,1.5456,1.5464,1.538,1.538,1.538,0,0,1.5277,1.528,1.5291,1.5308,1.5312,1.5331,1.5305,1.5324,1.5339,1.5317,1.5344,1.5346,1.5354,1.5387,1.5402,1.539,1.5458,1.5434,1.5438,1.544,1.5461,1.5469,1.5476,1.5382,1.5382,1.5382,0,0,1.5324,1.5327,1.5352,1.5358,1.5367,1.5364,1.537,1.5375,1.5376,1.5403,1.5388,1.5404,1.5431,1.5438,1.5445,1.5498,1.5487,1.5503,1.5534,1.5556,1.5563,1.5569,1.559,1.5598,1.5507,1.5507,1.5507,0,1.5349,1.5376,1.5367,1.5389,1.5397,1.538,1.5406,1.5412,1.5424,1.5431,1.5417,1.5452,1.5456,1.5492,1.5505,1.5511,1.5519,1.5503,1.5563,1.5568,1.5574,1.5594,1.5602,1.5509,1.5509,1.5509,1.5509,0,1.5407,1.5426,1.5445,1.5459,1.547,1.5494,1.5489,1.5501,1.5494,1.5494,1.5523,1.5527,1.5543,1.5551,1.5543,1.5587,1.5579,1.5564,1.554,1.5584,1.5603,1.5611,1.5512,1.5512,1.5511,1.551,0,0,1.5471,1.5482,1.5489,1.5497,1.5505,1.552,1.5544,1.556,1.5572,1.5581,1.5603,1.5627,1.5614,1.5622,1.5615,1.5634,1.5679,1.5617,1.5617,1.5631,1.5731,1.5744,1.5753,1.5671,1.5673,1.5674,1.5731,0,1.552,1.5562,1.5556,1.5597,1.5616,1.56,1.5621,1.563,1.563,1.5647,1.5647,1.5666,1.5645,1.5651,1.5669,1.567,1.57,1.5666,1.5693,1.5694,1.5693,1.5762,1.5775,1.5829,1.5738,1.5739,1.574,0,1.5583,1.5597,1.564,1.5648,1.5656,1.5675,1.5691,1.5707,1.5717,1.5716,1.5726,1.5717,1.5742,1.5717,1.5753,1.573,1.5741,1.5743,1.5745,1.5749,1.5721,1.577,1.5846,1.5855,1.5751,1.575,1.5749,0,1.5629,1.5657,1.5688,1.5694,1.5704,1.5719,1.5724,1.5732,1.5743,1.5757,1.5765,1.5781,1.5791,1.5804,1.58,1.5782,1.5839,1.5812,1.584,1.5841,1.5854,1.5854,1.5935,1.5857,1.5857,1.5857,1.5857,0,1.5685,1.5713,1.5709,1.5728,1.5759,1.5752,1.5783,1.5786,1.5794,1.5815,1.5801,1.582,1.5813,1.5832,1.5829,1.5861,1.5865,1.5866,1.5865,1.5869,1.5869,1.5877,1.5874,1.5859,1.5859,1.5858,1.5858,0,1.5742,1.574,1.5773,1.5781,1.5783,1.5806,1.5813,1.5832,1.5832,1.5857,1.5863,1.5863,1.5885,1.5883,1.5907,1.5905,1.5946,1.5939,1.5943,1.5942,1.5972,1.597,1.6063,1.6076,1.5987,1.5988,1.5989,0,1.5779,1.58,1.5811,1.5824,1.583,1.5851,1.5863,1.5857,1.587,1.5885,1.5902,1.5923,1.594,1.5976,1.5979,1.5998,1.5994,1.6025,1.5996,1.6,1.5997,1.5997,1.6001,1.6031,1.6032,1.6033,1.6033,0,1.5845,1.5844,1.5862,1.5881,1.5896,1.591,1.5923,1.5935,1.5931,1.5946,1.5969,1.5983,1.6009,1.6031,1.6049,1.6055,1.6045,1.6042,1.605,1.6055,1.6057,1.6059,1.5961,1.604,1.604,1.6039,1.6039,1.6039,1.5894,1.5914,1.5926,1.5947,1.5957,1.597,1.5989,1.5992,1.6011,1.6033,1.6028,1.6055,1.6067,1.6091,1.6099,1.612,1.6109,1.612,1.6123,1.6127,1.6132,1.6052,1.6123,1.6123,1.6123,1.6123,1.6123,0,1.5962,1.597,1.599,1.6009,1.6027,1.6016,1.603,1.6046,1.607,1.6082,1.61,1.6128,1.615,1.6155,1.6176,1.6193,1.6189,1.6199,1.6199,1.6201,1.6139,1.6131,1.6202,1.6202,1.6202,1.6202,1.6202,1.6202,1.6,1.6033,1.6034,1.6073,1.608,1.6107,1.6117,1.613,1.614,1.6172,1.6191,1.6194,1.6205,1.6227,1.6248,1.6249,1.6258,1.6271,1.627,1.6213,1.6205,1.6197,1.619,1.6272,1.6273,1.6331,1.6332,1.6332]}]]